Weather History for West Palm Beach, FL

Change the Weather History Date:

Tuesday, May 14, 2013

  Actual Average Record
Temperature  
Mean Temperature 76 °F 78 °F  
Max Temperature 80 °F 86 °F 99 °F (1922)
Min Temperature 72 °F 71 °F 56 °F (1960)
Degree Days  
Heating Degree Days 0 0  
Month to date heating degree days 0 0  
Since 1 July heating degree days 164 233  
Cooling Degree Days 11 13  
Month to date cooling degree days 143 168  
Year to date cooling degree days 970 863  
Growing Degree Days 26 (Base 50)    
Moisture  
Dew Point 57 °F    
Average Humidity 55    
Maximum Humidity 68    
Minimum Humidity 42    
Precipitation  
Precipitation 0.00 in 0.13 in 2.18 in (1964)
Month to date precipitation 5.27 1.38  
Year to date precipitation 14.55 15.58  
Snow  
Snow 0.00 in - - ()
Month to date snowfall 0.0  
Since 1 July snowfall 0.0  
Snow Depth 0.00 in    
Sea Level Pressure  
Sea Level Pressure 30.14 in    
Wind  
Wind Speed 11 mph (NE)    
Max Wind Speed 17 mph    
Max Gust Speed 22 mph    
Visibility 10 miles    
Events      
T = Trace of Precipitation, MM = Missing Value Source: NWS Daily Summary

Daily Weather History Graph

Daily Weather History Graph

Search for Another Location

Airport:

Trip Planner

Search our weather history database for the weather conditions in past years. The results will help you decide how hot, cold, wet, or windy it might be!

Date:

Astronomy

May. 14, 2013 Rise Set
Actual Time 6:33 AM EDT 8:00 PM EDT
Civil Twilight 6:08 AM EDT 8:25 PM EDT
Nautical Twilight 5:38 AM EDT 8:55 PM EDT
Astronomical Twilight 5:07 AM EDT 9:26 PM EDT
Moon 10:11 AM EDT (5/14) 11:49 PM EDT (5/14)
Length of Visible Light 14h 17m
Length of Day
13h 26m
Waxing Crescent, 19% of the Moon is Illuminated
May 14
Waxing Crescent
May 18
First Quarter
May 25
Full
May 31
Last Quarter
Jun 8
New

Hourly Weather History & Observations

Time (EDT) Temp. Heat Index Dew Point Humidity Pressure Visibility Wind Dir Wind Speed Gust Speed Precip Events Conditions
12:53 AM 75.0 °F - 63.0 °F 66% 30.08 in 10.0 mi NNE 6.9 mph - N/A   Scattered Clouds
1:53 AM 75.0 °F - 63.0 °F 66% 30.07 in 10.0 mi NNE 6.9 mph - N/A   Partly Cloudy
2:53 AM 75.0 °F - 62.1 °F 64% 30.08 in 10.0 mi NNE 9.2 mph - N/A   Scattered Clouds
3:53 AM 73.9 °F - 60.1 °F 62% 30.08 in 10.0 mi North 6.9 mph - N/A   Partly Cloudy
4:53 AM 72.0 °F - 60.1 °F 66% 30.08 in 10.0 mi North 5.8 mph - N/A   Partly Cloudy
5:53 AM 73.0 °F - 57.9 °F 59% 30.10 in 10.0 mi NNE 8.1 mph - N/A   Scattered Clouds
6:53 AM 73.0 °F - 57.0 °F 57% 30.11 in 10.0 mi NNE 9.2 mph - N/A   Mostly Cloudy
7:53 AM 73.9 °F - 57.9 °F 57% 30.13 in 10.0 mi NE 12.7 mph - N/A   Scattered Clouds
8:53 AM 75.9 °F - 57.0 °F 52% 30.15 in 10.0 mi NNE 15.0 mph - N/A   Scattered Clouds
9:53 AM 75.9 °F - 55.9 °F 50% 30.16 in 10.0 mi NE 16.1 mph 20.7 mph N/A   Scattered Clouds
10:53 AM 78.1 °F - 57.0 °F 48% 30.18 in 10.0 mi ENE 11.5 mph - N/A   Scattered Clouds
11:53 AM 78.1 °F - 55.9 °F 46% 30.18 in 10.0 mi NE 15.0 mph 19.6 mph N/A   Scattered Clouds
12:53 PM 78.1 °F - 55.0 °F 45% 30.18 in 10.0 mi ENE 11.5 mph 20.7 mph N/A   Scattered Clouds
1:53 PM 79.0 °F - 55.9 °F 45% 30.17 in 10.0 mi NNE 15.0 mph 19.6 mph N/A   Scattered Clouds
2:53 PM 80.1 °F 80.1 °F 55.0 °F 42% 30.16 in 10.0 mi NNE 15.0 mph - N/A   Mostly Cloudy
3:53 PM 78.1 °F - 55.0 °F 45% 30.15 in 10.0 mi ENE 10.4 mph 20.7 mph N/A   Scattered Clouds
4:53 PM 77.0 °F - 55.0 °F 47% 30.14 in 10.0 mi NE 11.5 mph - N/A   Scattered Clouds
5:53 PM 77.0 °F - 55.9 °F 48% 30.14 in 10.0 mi NE 13.8 mph - N/A   Scattered Clouds
6:53 PM 75.9 °F - 55.9 °F 50% 30.14 in 10.0 mi East 10.4 mph - N/A   Scattered Clouds
7:53 PM 75.0 °F - 54.0 °F 48% 30.14 in 10.0 mi NE 10.4 mph - N/A   Scattered Clouds
8:53 PM 75.0 °F - 53.1 °F 46% 30.15 in 10.0 mi NE 9.2 mph - N/A   Scattered Clouds
9:53 PM 73.9 °F - 53.1 °F 48% 30.17 in 10.0 mi ENE 8.1 mph - N/A   Partly Cloudy
10:53 PM 73.9 °F - 53.1 °F 48% 30.18 in 10.0 mi ENE 9.2 mph - N/A   Partly Cloudy
11:53 PM 73.9 °F - 53.1 °F 48% 30.18 in 10.0 mi ENE 6.9 mph - N/A   Partly Cloudy